Flag for Panama Weather past 2 weeks in Panama, Panama

Now
88 °F

Thunderstorms. Scattered clouds.


Feels Like: 98 °F
Forecast: 80 / 89 °F
Wind: 6 mph from Northwest

Location: Marcos A. Gelabert

Current Time: Sep 1, 2014 at 2:27:58 PM

Latest Report: Sep 1, 2014 at 2:00 PM


Visibility: 5 mi

Pressure: 29.80 "Hg

Humidity: 66%

Dew point: 75 °F

Location of PanamaLocation

Historic Weather in Panama — Graph

°F

Panama temperature yesterday

Maximum temperature yesterday: 90 °F (at 12:00 PM)
Minimum temperature yesterday: 79 °F (at 6:00 AM)
Average temperature yesterday: 84 °F

Past Weeks' High & Low Weather Summary

 TemperatureHumidityPressure
High93 °F (Aug 30, 12:00 PM)100% (Aug 18, 8:00 AM)29.92 "Hg (Aug 18, 8:00 AM)
Low73 °F (Aug 20, 6:00 AM)53% (Aug 30, 12:00 PM)29.74 "Hg (Aug 24, 4:00 PM)
Average82 °F81%29.85 "Hg
* Reported Aug 17 1:00 PM — Sep 1 1:00 PM, Panama, Weather by CustomWeather, © 2014

Note: Actual official high and low records may vary slightly from our data, if they occured in-between our weather recording intervals... More about our weather records

Advertising

Panama weather history for previous 24 hours

 ConditionsComfort  
Time TempWeatherWind HumidityBarometerVisibility
1:00 PM
Sep 1
91 °FScattered clouds.6 mph59%29.80 "HgN/A
12:00 PM91 °FScattered clouds.7 mph59%29.83 "HgN/A
11:00 AM90 °FPassing clouds.6 mph63%29.83 "Hg6 mi
10:00 AM88 °FPassing clouds.2 mph70%29.86 "Hg6 mi
9:00 AM86 °FPassing clouds.1 mph75%29.86 "Hg6 mi
8:00 AM82 °FPassing clouds.1 mph84%29.83 "Hg6 mi
7:00 AM79 °FPassing clouds.No wind94%29.83 "Hg6 mi
6:00 AM79 °FPassing clouds.No wind94%29.83 "Hg6 mi
10:00 PM
Aug 31
81 °FPassing clouds.6 mph89%29.83 "HgN/A
9:00 PM82 °FPassing clouds.5 mph84%29.83 "HgN/A
8:00 PM82 °FPassing clouds.8 mph79%29.83 "HgN/A
7:00 PM84 °FPassing clouds.9 mph74%29.80 "HgN/A
6:00 PM86 °FPassing clouds.8 mph70%29.80 "HgN/A
5:00 PM86 °FPassing clouds.6 mph79%29.80 "HgN/A
4:00 PM82 °FThunderstorms. Scattered clouds.5 mph89%29.80 "Hg6 mi
3:00 PM84 °FThunderstorms. Scattered clouds.12 mph84%29.80 "Hg3 mi
2:00 PM90 °FScattered clouds.12 mph67%29.80 "HgN/A
Weather by CustomWeather, © 2014

See weather overviewHow to use our weather pages